Location: Long Island Community Building
(39.9491°N, 99.5338°W)
Time: 04:34:23
(UTC+00:00)

Cosmos 2084 Rocket - Pass Details

Date: 06 December 2019
Orbit: 572 x 610 km, 62.8° (Epoch: 23 January)

Event Time Altitude Azimuth Distance (km) Brightness Sun altitude
Exits shadow 12:57:25 - 320° (NW) 2,072 5.7 -9.1°
Reaches altitude 10° 12:57:41 10° 319° (NW) 1,966 5.6 -9.1°
Maximum altitude 13:02:05 63° 239° (WSW) 677 3.6 -8.3°
Drops below altitude 10° 13:06:26 10° 158° (SSE) 1,940 6.8 -7.5°
Sets 13:08:41 0° 155° (SSE) 2,834 7.8 -7.1°
